Simultaneous Nadir Overpasses (SNOs) Predictions

Prediction of SNOs between GOES-16 and NOAA-19 Satellite Orbit:

Table of predicted SNOs for the next 14.0 days since TLE Epoch: 10/8/2022
Index Date Time (GOES-16) GOES-16 Lat,Lon NOAA-19 Lat,Lon Distance(km) Time Diff (sec)
1 10/09/2022 00:48:10 0.06, -75.19 1.01, -71.00 477.79 80
2 10/10/2022 13:17:52 -0.06, -75.21 0.76, -78.75 404.44 80
3 10/11/2022 13:05:59 -0.06, -75.22 0.10, -75.85 72.59 80
4 10/12/2022 12:56:46 -0.06, -75.23 -0.61, -72.97 259.45 80
5 10/15/2022 01:14:36 0.06, -75.24 -0.53, -77.82 294.15 80
6 10/16/2022 01:05:23 0.05, -75.25 0.12, -74.92 38.10 80
7 10/17/2022 00:53:29 0.05, -75.27 0.77, -72.02 370.47 80
8 10/19/2022 13:11:16 -0.05, -75.32 0.32, -76.87 176.56 80
9 10/20/2022 13:02:03 -0.05, -75.34 -0.36, -73.97 156.54 80
10 10/21/2022 12:50:09 -0.05, -75.36 -1.03, -71.07 489.78 80
